| time (UTC) | temp C | wind direction | speed KPH | gust KPH | rain 1hr cm | rain 24hr cm | rain mn cm | humidity % | barometer mb |
| 20260506231606 | 16 | 0 | 0.0 | 1.6 | 0.00 | 0.00 | 0.00 | 76 | 1016.5 |
| 20260506230104 | 16 | 174 | 0.0 | 3.2 | 0.00 | 0.00 | 0.00 | 76 | 1016.4 |
| 20260506224552 | 16 | 0 | 1.6 | 6.4 | 0.00 | 0.00 | 0.00 | 76 | 1016.6 |
| 20260506223055 | 16 | 0 | 1.6 | 8.0 | 0.00 | 0.00 | 0.00 | 76 | 1016.8 |
| 20260506221610 | 16 | 24 | 1.6 | 8.0 | 0.00 | 0.00 | 0.00 | 75 | 1017.0 |
| 20260506220108 | 16 | 0 | 0.0 | 6.4 | 0.00 | 0.00 | 0.00 | 76 | 1016.9 |
| 20260506214550 | 16 | 0 | 0.0 | 6.4 | 0.00 | 0.00 | 0.00 | 76 | 1016.7 |
| 20260506213104 | 16 | 0 | 0.0 | 0.0 | 0.00 | 0.00 | 0.00 | 77 | 1017.0 |
| 20260506211544 | 15 | 0 | 1.6 | 4.8 | 0.00 | 0.00 | 0.00 | 77 | 1017.0 |
| 20260506210057 | 15 | 194 | 0.0 | 3.2 | 0.00 | 0.00 | 0.00 | 78 | 1017.0 |
| 20260506204556 | 15 | 0 | 0.0 | 4.8 | 0.00 | 0.00 | 0.00 | 79 | 1017.1 |
| 20260506203047 | 15 | 0 | 0.0 | 4.8 | 0.00 | 0.00 | 0.00 | 79 | 1017.1 |
| 20260506201550 | 15 | 0 | 0.0 | 6.4 | 0.00 | 0.00 | 0.00 | 79 | 1017.0 |
| 20260506200052 | 15 | 0 | 0.0 | 4.8 | 0.00 | 0.00 | 0.00 | 78 | 1016.9 |
| 20260506194550 | 15 | 0 | 0.0 | 6.4 | 0.00 | 0.00 | 0.00 | 79 | 1016.9 |
| 20260506193045 | 15 | 0 | 0.0 | 9.7 | 0.00 | 0.00 | 0.00 | 78 | 1016.7 |
| 20260506191549 | 15 | 89 | 0.0 | 8.0 | 0.00 | 0.00 | 0.00 | 78 | 1016.7 |
| 20260506190046 | 16 | 147 | 1.6 | 8.0 | 0.00 | 0.00 | 0.00 | 76 | 1016.6 |
| 20260506184559 | 16 | 156 | 0.0 | 6.4 | 0.00 | 0.00 | 0.00 | 77 | 1016.6 |
| 20260506183048 | 16 | 183 | 0.0 | 4.8 | 0.00 | 0.00 | 0.00 | 75 | 1016.3 |
| 20260506181548 | 16 | 207 | 1.6 | 6.4 | 0.00 | 0.00 | 0.00 | 74 | 1016.4 |
| 20260506180058 | 16 | 0 | 0.0 | 1.6 | 0.00 | 0.00 | 0.00 | 76 | 1016.2 |
| 20260506174547 | 16 | 164 | 0.0 | 3.2 | 0.00 | 0.00 | 0.00 | 75 | 1016.1 |
| 20260506173047 | 16 | 0 | 0.0 | 0.0 | 0.00 | 0.00 | 0.00 | 78 | 1016.0 |
| 20260506171557 | 15 | 0 | 0.0 | 0.0 | 0.00 | 0.00 | 0.00 | 80 | 1016.0 |
| 20260506170053 | 15 | 0 | 0.0 | 4.8 | 0.00 | 0.00 | 0.00 | 80 | 1016.0 |
| 20260506164551 | 15 | 0 | 0.0 | 3.2 | 0.00 | 0.00 | 0.00 | 81 | 1015.9 |
| 20260506163049 | 14 | 0 | 0.0 | 4.8 | 0.00 | 0.00 | 0.00 | 83 | 1015.9 |
| 20260506161549 | 14 | 0 | 0.0 | 1.6 | 0.00 | 0.00 | 0.00 | 84 | 1015.7 |
| 20260506154551 | 13 | 136 | 0.0 | 3.2 | 0.00 | 0.00 | 0.00 | 86 | 1015.5 |
| 20260506153049 | 13 | 119 | 1.6 | 11.3 | 0.00 | 0.00 | 0.00 | 88 | 1015.5 |
| 20260506151550 | 12 | 0 | 0.0 | 4.8 | 0.00 | 0.00 | 0.00 | 90 | 1015.4 |
| 20260506150054 | 12 | 0 | 0.0 | 0.0 | 0.00 | 0.00 | 0.00 | 92 | 1015.3 |
| 20260506144601 | 11 | 0 | 0.0 | 0.0 | 0.00 | 0.00 | 0.00 | 93 | 1015.4 |
| 20260506143047 | 11 | 0 | 0.0 | 0.0 | 0.00 | 0.00 | 0.00 | 93 | 1015.4 |
| 20260506141547 | 11 | 0 | 0.0 | 0.0 | 0.00 | 0.00 | 0.00 | 94 | 1015.3 |
| 20260506140050 | 10 | 0 | 0.0 | 0.0 | 0.00 | 0.00 | 0.00 | 94 | 1014.9 |
| 20260506134546 | 10 | 0 | 0.0 | 0.0 | 0.00 | 0.00 | 0.00 | 94 | 1014.7 |
| 20260506133050 | 10 | 0 | 0.0 | 0.0 | 0.00 | 0.00 | 0.00 | 94 | 1014.5 |
| 20260506131557 | -17 | 0.0 | 0.0 | 0.00 | 0.00 | 0.00 | 1014.4 | ||
| 20260506130049 | -17 | 0.0 | 0.0 | 0.00 | 0.00 | 0.00 | 1014.3 | ||
| 20260506124547 | -17 | 0.0 | 0.0 | 0.00 | 0.00 | 0.00 | 1014.3 | ||
| 20260506123051 | -17 | 0.0 | 0.0 | 0.00 | 0.00 | 0.00 | 1014.4 | ||
| 20260506121542 | -17 | 0.0 | 0.0 | 0.00 | 0.00 | 0.00 | 1014.4 | ||
| 20260506120052 | -17 | 0.0 | 0.0 | 0.00 | 0.00 | 0.00 | 1014.1 | ||
| 20260506114552 | -17 | 0.0 | 0.0 | 0.00 | 0.00 | 0.00 | 1014.0 | ||
| 20260506113045 | -17 | 0.0 | 0.0 | 0.00 | 0.00 | 0.00 | 1014.1 | ||
| 20260506111547 | 7 | 0.0 | 0.0 | 0.00 | 0.00 | 0.00 | 92 | 1014.1 | |
| 20260506110042 | 7 | 0 | 0.0 | 0.0 | 0.00 | 0.00 | 0.00 | 93 | 1013.9 |
| 20260506104551 | 7 | 0 | 0.0 | 0.0 | 0.00 | 0.00 | 0.00 | 93 | 1013.7 |
| 20260506103052 | 7 | 0 | 0.0 | 0.0 | 0.00 | 0.00 | 0.00 | 92 | 1013.6 |
| 20260506101550 | 8 | 0 | 0.0 | 0.0 | 0.00 | 0.00 | 0.00 | 93 | 1013.5 |
| 20260506100100 | 8 | 0 | 0.0 | 0.0 | 0.00 | 0.00 | 0.00 | 92 | 1013.5 |
| 20260506094552 | 8 | 0 | 0.0 | 0.0 | 0.00 | 0.00 | 0.00 | 92 | 1013.4 |
| 20260506093045 | 8 | 0 | 0.0 | 0.0 | 0.00 | 0.00 | 0.00 | 92 | 1013.1 |
| 20260506091545 | 8 | 0 | 0.0 | 0.0 | 0.00 | 0.00 | 0.00 | 92 | 1013.0 |
| 20260506090044 | 8 | 0 | 0.0 | 0.0 | 0.00 | 0.00 | 0.00 | 92 | 1012.9 |
| 20260506084546 | 8 | 0 | 0.0 | 0.0 | 0.00 | 0.00 | 0.00 | 92 | 1012.9 |
| 20260506083042 | 8 | 0 | 0.0 | 0.0 | 0.00 | 0.00 | 0.00 | 91 | 1012.7 |
| 20260506081543 | 8 | 0 | 0.0 | 0.0 | 0.00 | 0.00 | 0.00 | 91 | 1012.6 |
| 20260506073045 | 9 | 0 | 0.0 | 0.0 | 0.00 | 0.00 | 0.00 | 91 | 1012.3 |
| 20260506071552 | 10 | 0 | 0.0 | 0.0 | 0.00 | 0.00 | 0.00 | 91 | 1012.2 |
| 20260506061546 | 10 | 0 | 0.0 | 0.0 | 0.00 | 0.00 | 0.00 | 90 | 1011.9 |
| 20260506044547 | 12 | 0 | 0.0 | 0.0 | 0.00 | 0.00 | 0.00 | 85 | 1011.4 |
| 20260506043046 | 13 | 0 | 0.0 | 0.0 | 0.00 | 0.00 | 0.00 | 83 | 1011.3 |
| 20260506041550 | 15 | 0 | 0.0 | 0.0 | 0.00 | 0.00 | 0.00 | 78 | 1011.2 |
| 20260506040055 | 15 | 0 | 0.0 | 0.0 | 0.00 | 0.00 | 0.00 | 77 | 1011.1 |
| 20260506034549 | 16 | 0 | 0.0 | 0.0 | 0.00 | 0.00 | 0.00 | 76 | 1010.9 |
| 20260506033042 | 16 | 0 | 0.0 | 0.0 | 0.00 | 0.00 | 0.00 | 75 | 1010.7 |
| 20260506031546 | 17 | 0 | 0.0 | 0.0 | 0.00 | 0.00 | 0.00 | 73 | 1010.4 |
| 20260506030100 | 17 | 0 | 0.0 | 0.0 | 0.00 | 0.00 | 0.00 | 71 | 1010.3 |
| 20260506024555 | 18 | 0 | 0.0 | 0.0 | 0.00 | 0.00 | 0.00 | 70 | 1010.3 |
| 20260506023052 | 18 | 0 | 0.0 | 0.0 | 0.00 | 0.00 | 0.00 | 69 | 1010.2 |
| 20260506021558 | 19 | 0 | 0.0 | 8.0 | 0.00 | 0.00 | 0.00 | 68 | 1010.3 |
| 20260506020048 | 20 | 0 | 1.6 | 8.0 | 0.00 | 0.00 | 0.00 | 67 | 1010.2 |
| 20260506014556 | 20 | 36 | 0.0 | 12.9 | 0.00 | 0.00 | 0.00 | 65 | 1010.1 |
| 20260506013054 | 21 | 0 | 0.0 | 4.8 | 0.00 | 0.00 | 0.00 | 63 | 1010.2 |
| 20260506011544 | 22 | 96 | 0.0 | 6.4 | 0.00 | 0.00 | 0.00 | 61 | 1010.2 |
| 20260506010053 | 22 | 0 | 0.0 | 4.8 | 0.00 | 0.00 | 0.00 | 60 | 1010.2 |
| 20260506004550 | 22 | 55 | 0.0 | 8.0 | 0.00 | 0.00 | 0.00 | 59 | 1010.2 |
| 20260506003045 | 22 | 69 | 1.6 | 9.7 | 0.00 | 0.00 | 0.00 | 60 | 1010.4 |
| 20260506001546 | 22 | 98 | 3.2 | 11.3 | 0.00 | 0.00 | 0.00 | 61 | 1010.7 |
| 20260506000047 | 22 | 16 | 1.6 | 9.7 | 0.00 | 0.00 | 0.00 | 60 | 1010.8 |
| 20260505234547 | 22 | 82 | 0.0 | 9.7 | 0.00 | 0.00 | 0.00 | 60 | 1010.9 |
| 20260505233057 | 23 | 75 | 0.0 | 14.5 | 0.00 | 0.00 | 0.00 | 59 | 1010.9 |